Meteo pe oră la Abertamy

Astăzi, 3 August, Marţi

Timp Temperatura Precipitaţii Vânt Presiune Umiditate
00:00 +9°C° 0 mm 1 m/s 684 mmHg 95%
01:00 +9°C° 0 mm 1 m/s 684 mmHg 95%
02:00 +9°C° 0 mm 1 m/s 684 mmHg 95%
03:00 +9°C° 0 mm 1 m/s 684 mmHg 96%
04:00 +9°C° 0 mm 1 m/s 684 mmHg 96%
05:00 +10°C° 0 mm 1 m/s 684 mmHg 94%
06:00 +11°C° 0 mm 1 m/s 685 mmHg 91%
07:00 +12°C° 0 mm 1 m/s 685 mmHg 89%
08:00 +13°C° 0.1 mm 2 m/s 685 mmHg 82%
09:00 +15°C° 0.1 mm 2 m/s 685 mmHg 74%
10:00 +16°C° 0.1 mm 2 m/s 685 mmHg 67%
11:00 +16°C° 0.6 mm 2 m/s 685 mmHg 68%
12:00 +17°C° 0.6 mm 2 m/s 685 mmHg 68%
13:00 +17°C° 0.6 mm 3 m/s 685 mmHg 69%
14:00 +16°C° 0.8 mm 2 m/s 685 mmHg 73%
15:00 +16°C° 0.8 mm 2 m/s 684 mmHg 77%
16:00 +15°C° 0.8 mm 2 m/s 684 mmHg 80%
17:00 +15°C° 0.6 mm 2 m/s 684 mmHg 83%
18:00 +14°C° 0.6 mm 2 m/s 684 mmHg 86%
19:00 +13°C° 0.6 mm 2 m/s 684 mmHg 89%
20:00 +12°C° 0.1 mm 2 m/s 684 mmHg 91%
21:00 +11°C° 0.1 mm 1 m/s 684 mmHg 93%
22:00 +10°C° 0.1 mm 1 m/s 684 mmHg 94%
23:00 +10°C° 0 mm 1 m/s 684 mmHg 94%

Mâine, 4 August, Miercuri

Timp Temperatura Precipitaţii Vânt Presiune Umiditate
00:00 +10°C° 0 mm 1 m/s 684 mmHg 94%
01:00 +10°C° 0 mm 1 m/s 684 mmHg 94%
02:00 +10°C° 0.1 mm 1 m/s 683 mmHg 95%
03:00 +10°C° 0.1 mm 1 m/s 683 mmHg 96%
04:00 +10°C° 0.1 mm 1 m/s 683 mmHg 96%
05:00 +11°C° 0.5 mm 1 m/s 683 mmHg 96%
06:00 +11°C° 0.5 mm 1 m/s 683 mmHg 96%
07:00 +11°C° 0.5 mm 1 m/s 684 mmHg 97%
08:00 +11°C° 0.5 mm 1 m/s 684 mmHg 96%
09:00 +10°C° 0.5 mm 2 m/s 684 mmHg 96%
10:00 +10°C° 0.5 mm 2 m/s 684 mmHg 96%
11:00 +12°C° 0.1 mm 2 m/s 684 mmHg 94%
12:00 +12°C° 0.1 mm 2 m/s 684 mmHg 92%
13:00 +12°C° 0.1 mm 2 m/s 684 mmHg 90%
14:00 +13°C° 0.1 mm 2 m/s 684 mmHg 84%
15:00 +14°C° 0.1 mm 2 m/s 684 mmHg 79%
16:00 +15°C° 0.1 mm 2 m/s 684 mmHg 73%
17:00 +15°C° 0.2 mm 2 m/s 684 mmHg 78%
18:00 +14°C° 0.2 mm 1 m/s 684 mmHg 84%
19:00 +13°C° 0.2 mm 1 m/s 683 mmHg 89%
20:00 +12°C° 0 mm 1 m/s 683 mmHg 91%
21:00 +11°C° 0 mm 1 m/s 683 mmHg 93%
22:00 +11°C° 0 mm 1 m/s 683 mmHg 95%
23:00 +11°C° 0 mm 1 m/s 683 mmHg 95%

Poimâine, 5 August, Joi

Timp Temperatura Precipitaţii Vânt Presiune Umiditate
00:00 +10°C° 0 mm 1 m/s 683 mmHg 95%
01:00 +10°C° 0 mm 1 m/s 683 mmHg 96%
02:00 +10°C° 0 mm 1 m/s 682 mmHg 95%
03:00 +10°C° 0 mm 1 m/s 682 mmHg 95%
04:00 +10°C° 0 mm 1 m/s 682 mmHg 95%
05:00 +11°C° 0 mm 1 m/s 682 mmHg 94%
06:00 +11°C° 0 mm 1 m/s 682 mmHg 92%
07:00 +12°C° 0 mm 1 m/s 682 mmHg 91%
08:00 +12°C° 0 mm 1 m/s 682 mmHg 87%
09:00 +13°C° 0 mm 1 m/s 682 mmHg 83%
10:00 +14°C° 0 mm 1 m/s 682 mmHg 79%
11:00 +14°C° 0.2 mm 1 m/s 682 mmHg 78%
12:00 +15°C° 0.2 mm 1 m/s 682 mmHg 76%
13:00 +15°C° 0.2 mm 1 m/s 682 mmHg 74%
14:00 +16°C° 0.1 mm 1 m/s 682 mmHg 73%
15:00 +16°C° 0.1 mm 1 m/s 682 mmHg 72%
16:00 +16°C° 0.1 mm 1 m/s 682 mmHg 72%
17:00 +15°C° 0.3 mm 1 m/s 681 mmHg 77%
18:00 +14°C° 0.3 mm 1 m/s 681 mmHg 82%
19:00 +13°C° 0.3 mm 1 m/s 681 mmHg 88%
20:00 +13°C° 0 mm 1 m/s 681 mmHg 89%
21:00 +12°C° 0 mm 1 m/s 681 mmHg 91%
22:00 +11°C° 0 mm 1 m/s 680 mmHg 93%
23:00 +11°C° 0 mm 1 m/s 680 mmHg 94%

6 August, Vineri

Timp Temperatura Precipitaţii Vânt Presiune Umiditate
00:00 +10°C° 0 mm 1 m/s 680 mmHg 94%
01:00 +10°C° 0 mm 1 m/s 680 mmHg 94%
02:00 +10°C° 0 mm 1 m/s 680 mmHg 95%
03:00 +10°C° 0 mm 1 m/s 680 mmHg 96%
04:00 +9°C° 0 mm 1 m/s 680 mmHg 96%
05:00 +9°C° 0 mm 2 m/s 680 mmHg 95%
06:00 +10°C° 0 mm 2 m/s 680 mmHg 94%
07:00 +12°C° 0 mm 2 m/s 680 mmHg 92%
08:00 +13°C° 0.1 mm 2 m/s 681 mmHg 88%
09:00 +13°C° 0.1 mm 3 m/s 681 mmHg 85%
10:00 +14°C° 0.1 mm 3 m/s 681 mmHg 81%
11:00 +16°C° 0.1 mm 3 m/s 681 mmHg 73%
12:00 +17°C° 0.1 mm 4 m/s 682 mmHg 65%
13:00 +19°C° 0.1 mm 4 m/s 682 mmHg 57%
14:00 +19°C° 0.1 mm 4 m/s 682 mmHg 58%
15:00 +19°C° 0.1 mm 4 m/s 682 mmHg 59%
16:00 +18°C° 0.1 mm 3 m/s 682 mmHg 59%
17:00 +17°C° 0.1 mm 3 m/s 682 mmHg 68%
18:00 +16°C° 0.1 mm 3 m/s 681 mmHg 76%
19:00 +15°C° 0.1 mm 2 m/s 681 mmHg 84%
20:00 +14°C° 0 mm 2 m/s 681 mmHg 87%
21:00 +13°C° 0 mm 2 m/s 681 mmHg 91%
22:00 +10°C° 0 mm 2 m/s 682 mmHg 95%
23:00 +10°C° 0 mm 2 m/s 682 mmHg 95%

7 August, Sâmbătă

Timp Temperatura Precipitaţii Vânt Presiune Umiditate
00:00 +10°C° 0 mm 2 m/s 681 mmHg 95%
01:00 +10°C° 0 mm 2 m/s 681 mmHg 96%
02:00 +10°C° 0 mm 1 m/s 681 mmHg 96%
03:00 +10°C° 0 mm 1 m/s 681 mmHg 96%
04:00 +10°C° 0 mm 1 m/s 681 mmHg 96%
05:00 +11°C° 0 mm 1 m/s 681 mmHg 93%
06:00 +12°C° 0 mm 1 m/s 682 mmHg 90%
07:00 +13°C° 0 mm 1 m/s 682 mmHg 87%
08:00 +15°C° 0 mm 2 m/s 682 mmHg 78%
09:00 +16°C° 0 mm 2 m/s 682 mmHg 68%
10:00 +18°C° 0 mm 2 m/s 682 mmHg 59%
11:00 +19°C° 0 mm 2 m/s 682 mmHg 56%
12:00 +20°C° 0 mm 2 m/s 682 mmHg 53%
13:00 +21°C° 0 mm 2 m/s 682 mmHg 50%
14:00 +20°C° 0.2 mm 2 m/s 683 mmHg 59%
15:00 +18°C° 0.2 mm 3 m/s 683 mmHg 68%
16:00 +17°C° 0.2 mm 3 m/s 683 mmHg 77%
17:00 +16°C° 0.2 mm 2 m/s 683 mmHg 81%
18:00 +15°C° 0.2 mm 2 m/s 683 mmHg 85%
19:00 +14°C° 0.2 mm 1 m/s 682 mmHg 89%
20:00 +14°C° 0 mm 1 m/s 683 mmHg 91%
21:00 +13°C° 0 mm 1 m/s 683 mmHg 93%
22:00 +12°C° 0 mm 2 m/s 683 mmHg 94%
23:00 +12°C° 0 mm 2 m/s 683 mmHg 95%

8 August, Duminică

Timp Temperatura Precipitaţii Vânt Presiune Umiditate
00:00 +12°C° 0 mm 1 m/s 683 mmHg 95%
01:00 +12°C° 0 mm 1 m/s 683 mmHg 95%
02:00 +12°C° 0.1 mm 1 m/s 683 mmHg 96%
03:00 +12°C° 0.1 mm 1 m/s 683 mmHg 96%
04:00 +12°C° 0.1 mm 1 m/s 683 mmHg 96%
05:00 +12°C° 0.2 mm 2 m/s 684 mmHg 95%
06:00 +12°C° 0.2 mm 2 m/s 684 mmHg 94%
07:00 +13°C° 0.2 mm 2 m/s 684 mmHg 93%
08:00 +13°C° 0.4 mm 2 m/s 685 mmHg 92%
09:00 +13°C° 0.4 mm 2 m/s 685 mmHg 91%
10:00 +14°C° 0.4 mm 2 m/s 685 mmHg 90%
11:00 +15°C° 0.4 mm 2 m/s 686 mmHg 86%
12:00 +16°C° 0.4 mm 3 m/s 686 mmHg 82%
13:00 +17°C° 0.4 mm 3 m/s 686 mmHg 78%
14:00 +17°C° 0.2 mm 3 m/s 687 mmHg 76%
15:00 +17°C° 0.2 mm 4 m/s 687 mmHg 75%
16:00 +17°C° 0.2 mm 4 m/s 687 mmHg 73%
17:00 +16°C° 0.1 mm 3 m/s 687 mmHg 77%
18:00 +16°C° 0.1 mm 3 m/s 687 mmHg 81%
19:00 +14°C° 0.1 mm 3 m/s 687 mmHg 85%
20:00 +14°C° 0 mm 2 m/s 688 mmHg 88%
21:00 +13°C° 0 mm 2 m/s 688 mmHg 91%
22:00 +12°C° 0 mm 2 m/s 688 mmHg 94%
23:00 +12°C° 0 mm 2 m/s 688 mmHg 94%
Arată mai mult

Formular de consimțământ

Meteoprog și furnizorii noștri de servicii pot stoca și accesa date personale, precum cookies, identificatori de dispozitiv sau alte tehnologii similare pe dispozitivul dumneavoastră și procesa astfel de date pentru a personaliza conținutul și reclamele, dar și pentru a oferi caracteristici de social media și pentru a analiza traficul.

  • Stocarea și/sau accesarea informațiilor pe dispozitivul dumneavoastră

    Cookies, identificatori de dispozitiv sau alte informații pot fi stocate sau accesate pe dispozitiv în scopurile indicate mai sus.

  • Reclame și conținut personalizat, evaluarea reclamelor și a conținutului, informații despre audiențe și dezvoltarea produselor

    Reclamele și conținutul pot fi personalizate pe baza unui profil. Pot fi adăugate date suplimentare pentru a personaliza mai bine reclamele și conținutul. Performanța reclamelor și conținutului poate fi măsurată. Pot fi obținute informații despre utilizatorii care au văzut reclamele și conținutul. Aceste date pot fi utilizate pentru a dezvolta sau îmbunătăți experiența utilizatorilor, sistemele și software-ul.

Dând clic pe ‘Sunt de acord’, permiteți utilizarea cookie-urilor menționate, a identificatorilor de dispozitiv, balizelor web sau altor tehnologii similare. Setările pot fi modificate din browser-ul dispozitivului dumneavoastră.

În anumite scopuri, interesele legitime pot prima asupra consimțământului. Puteți citi mai multe informații în acest sens în Politica privind Confidențialitatea Datelor și Cookie.